Location: Lombard
(41.8800°N, 88.0080°W)
Time: 23:12:59
(UTC-05:00)

Transit 2A - Pass Details

Date: 13 February 2023
Orbit: 591 x 964 km, 66.7° (Epoch: 20 March)

Event Time Altitude Azimuth Distance (km) Brightness Sun altitude
Rises 14:43:25 0° 219° (SW) 2,996 10.5 24.1°
Reaches altitude 10° 14:45:38 10° 223° (SW) 2,136 10.4 23.8°
Maximum altitude 14:50:27 62° 304° (NW) 837 6.7 23.2°
Drops below altitude 10° 14:55:52 10° 25° (NNE) 2,395 8.1 22.5°
Sets 14:58:29 0° 29° (NNE) 3,393 8.8 22.1°
